Lid_Strength_Index
8 7 6 6 4 4 4 6 5 7 8 9 10 9 10 11 11 12 12 12 12 11 12 12 13 13 14 14 14 14 14 13 13 14 14 14 13 14 14 14 14 14 14
8 7 7 5 4 4 4 3 5 7 8 8 10 11 11 11 12 12 13 13 12 12 12 13 13 14 14 14 14 14 14 14 14 15 15 16 15 14 13 14 14 15 14
8 8 6 5 5 5 5 5 5 7 8 10 11 12 12 12 12 13 14 14 13 13 13 13 14 14 14 14 14 14 15 16 15 14 16 18 19 17 15 15 15 14 15
8 8 6 6 6 6 6 6 5 7 8 10 11 12 12 13 13 14 14 14 14 14 13 14 14 14 14 14 14 15 16 16 16 15 14 15 16 18 19 16 15 16 15
8 7 6 5 6 7 7 7 7 8 10 11 11 12 13 13 14 14 15 15 15 14 14 14 14 14 14 15 16 16 16 15 16 16 16 16 16 17 18 19 18 16 15
8 7 7 7 8 8 8 8 9 10 10 11 12 12 13 13 13 15 15 15 15 14 14 14 15 15 15 16 16 16 16 16 16 16 17 17 18 18 19 19 18 18 16
8 8 8 8 8 9 9 9 9 11 11 12 11 12 12 13 14 15 15 15 15 15 15 15 15 16 16 16 15 16 16 16 17 17 17 17 17 17 17 18 18 18 16
8 7 7 7 8 9 10 10 10 12 12 11 11 13 13 14 15 15 15 15 15 15 15 15 16 16 16 16 16 17 16 16 17 17 18 17 17 17 16 16 17 19 18
8 7 8 8 9 11 11 11 12 13 12 12 13 14 15 15 15 15 15 15 15 14 16 16 17 17 17 17 17 17 17 17 17 17 18 18 16 16 15 15 15 17 19
8 8 8 9 10 12 13 12 12 12 14 14 14 14 15 15 15 15 16 16 16 16 17 17 17 17 17 17 17 17 16 17 17 16 18 17 16 15 15 15 15 15 16
8 8 9 9 11 12 13 13 13 14 14 14 15 15 16 16 16 16 16 16 16 17 17 17 17 17 17 17 17 17 17 17 17 17 17 16 15 15 15 15 15 15 15
9 9 9 11 12 12 13 14 14 14 15 16 16 16 16 16 16 16 17 16 17 17 17 16 17 17 17 17 17 18 17 18 17 16 16 16 14 15 15 15 15 15 15
9 9 10 11 12 12 13 14 15 15 16 15 16 16 16 16 17 17 17 17 17 17 17 17 17 17 16 17 17 17 17 17 16 16 16 15 15 16 15 15 15 15 13
9 10 10 11 12 13 14 15 16 15 16 15 16 16 16 17 17 17 17 16 17 17 18 18 17 17 17 17 17 17 16 16 15 15 15 15 15 15 15 14 14 13 14
9 10 10 11 12 13 14 15 15 15 15 16 16 16 16 16 16 16 17 17 17 18 18 18 17 17 17 16 16 15 15 15 16 15 15 15 14 11 12 13 13 12 11
9 9 10 11 12 13 14 15 15 15 15 16 16 16 16 16 17 17 18 18 18 18 18 17 18 18 16 14 12 12 14 15 16 16 16 15 13 13 11 10 9 8 10
9 9 10 11 12 13 14 15 16 15 16 16 16 16 16 17 17 18 18 19 19 18 18 19 18 19 19 13 11 11 14 16 16 16 16 15 13 12 13 10 8 7 7
9 9 10 11 12 14 15 16 15 16 16 16 16 16 17 18 18 18 19 19 18 18 19 18 19 19 17 12 11 11 15 16 16 16 15 15 15 13 10 10 9 11 11
9 10 10 12 14 15 15 15 16 16 16 17 17 17 17 18 19 19 19 19 19 19 19 19 19 19 18 13 12 12 15 16 16 15 14 13 12 9 8 9 11 12 12
11 12 13 14 15 16 16 16 17 17 18 18 17 17 18 19 19 19 19 19 19 19 19 19 18 16 18 14 12 12 14 15 14 14 12 10 10 8 7 10 12 14 14
14 14 14 15 16 16 16 17 17 18 18 18 18 18 18 18 20 20 19 19 20 20 20 19 19 18 17 17 12 12 13 14 13 14 13 11 8 8 8 9 13 13 11
15 15 16 17 17 16 16 18 18 18 18 18 19 19 20 18 17 18 19 19 20 20 19 19 19 18 18 14 13 11 11 11 13 12 12 11 8 9 9 11 10 10 11
16 16 16 17 18 18 17 18 19 19 19 19 20 20 19 19 19 19 19 19 19 19 19 19 19 17 16 16 12 11 10 10 11 11 10 9 9 10 12 12 11 11 15
16 16 17 18 19 19 19 19 19 19 19 20 20 19 19 19 20 19 18 18 19 19 19 18 18 18 17 16 15 14 13 10 11 10 12 11 11 12 13 14 14 15 14
17 17 17 18 20 19 19 18 18 19 20 20 20 20 19 20 19 19 19 18 18 17 17 17 17 17 17 15 12 12 12 11 10 11 13 14 15 16 16 15 15 15 15
17 18 18 18 19 19 19 19 19 19 20 20 19 19 19 20 19 19 19 15 14 14 13 13 14 15 13 12 11 9 9 9 10 13 15 16 16 16 16 16 16 15 14